Regional Weather Roundup
Issued by NWS

Home | Current Version | Previous Version | Text Only | Print | Product List | Glossary Off
Versions: 1 2 3 4 5 6 7 8 9 10 11 12 13 14 15 16 17 18 19 20 21 22 23 24 25 26 27 28 29 30 31 32 33 34 35 36 37 38 39 40 41 42 43 44 45 46 47 48 49 50

000
ASUS43 KBIS 202101
RWRND

NORTH DAKOTA REGIONAL WEATHER ROUNDUP
NATIONAL WEATHER SERVICE BISMARCK ND
400 PM CDT MON APR 20 2015

NOTE: "FAIR" INDICATES FEW OR NO CLOUDS BELOW 12,000 FEET WITH NO
SIGNIFICANT WEATHER AND/OR OBSTRUCTIONS TO VISIBILITY.


NDZ001>003-009>011-017-202200-
NORTHWEST NORTH DAKOTA

CITY           SKY/WX    TMP DP  RH WIND       PRES   REMARKS
WILLISTON      MOSUNNY   53  14  21 N23G33    29.85F
MINOT          SUNNY     50   6  16 NW26G41   29.75S
MINOT AFB      SUNNY     51   9  18 NW31G38   29.74F
$$

NDZ018>021-031>035-040>046-202200-
SOUTHWEST NORTH DAKOTA

CITY           SKY/WX    TMP DP  RH WIND       PRES   REMARKS
BISMARCK       SUNNY     52   3  13 N33G49    29.75S
DICKINSON      CLOUDY    50  13  22 N21G35    29.80F
GARRISON         N/A     52   8  17 N33G48    29.75S
HETTINGER ARPT PTSUNNY   51  13  21 NW25G40   29.82F
$$

NDZ004>008-012>016-024-026-027-054-202200-
NORTHEAST NORTH DAKOTA

CITY           SKY/WX    TMP DP  RH WIND       PRES   REMARKS
GRAND FORKS    LGT SNOW  35  32  88 NW22G35   29.60S VSB 1
GRND FRKS AFB  LGT RAIN  36  33  88 N22G29    29.60S
DEVILS LAKE    CLOUDY    39  27  60 N23G37    29.65S
$$

NDZ022-023-025-028>030-036>039-047>053-202200-
SOUTHEAST NORTH DAKOTA

CITY           SKY/WX    TMP DP  RH WIND       PRES   REMARKS
FARGO          FLURRIES  39  34  82 NW23G35   29.60S
JAMESTOWN      CLOUDY    42  24  49 NW25G38   29.65S
$$



USA.gov is the U.S. government's official web portal to all federal, state and local government web resources and services.